[[{"header":{"parameterUnit":"m.s-1","parameterCategory":1,"la1":30.2991,"la2":30.254,"lo1":-89.0895,"lo2":-89.0444,"dy":0.0017,"dx":0.0017,"nx":28,"ny":28,"refTime":"2025-12-14T09:00:00:Z","depth":0,"parameterNumber":2,"parameterNumberName":"U-component_of_WINDS"},"data":[0,0,0,0,0,0,0,0,0,0,0,0,0,0,0,0,0,0,0,0,0,0,0,0,0,0,0,0,0,0,0,0,0,0,0,0,0,0,0,0,0,0,0,0,0,0,0,0,0,0,0,0,0,0,0,0,0,0,-2.2982,-2.2982,0,-2.3042,-2.3043,-2.3044,-2.2991,-2.2988,-2.2986,-2.2984,-2.3045,-2.3048,-2.3052,0,0,0,0,0,0,0,0,0,0,0,0,0,-2.2818,-2.2821,-2.2982,-2.2983,-2.2983,-2.3042,-2.3043,-2.3044,-2.2991,-2.2988,-2.2986,-2.2983,-2.3044,-2.3048,-2.3052,0,0,0,0,0,0,0,0,0,0,0,0,0,-2.2885,-2.2822,-2.2982,-2.2964,-2.2963,-2.3042,-2.3043,-2.3044,-2.2991,-2.2988,-2.2985,-2.2982,-2.3042,-2.3048,-2.3053,-2.3152,0,0,-2.307,-2.3072,0,0,0,0,0,0,0,0,-2.2881,-2.2891,-2.2966,-2.2965,-2.2964,-2.3006,-2.3008,-2.308,-2.2992,-2.2981,-2.2984,-2.298,-2.3034,-2.304,-2.3059,-2.3155,-2.3158,-2.307,-2.3074,-2.3076,-2.3077,0,0,0,0,0,0,0,-2.2876,-2.2888,-2.3006,-2.2967,-2.2966,-2.2952,-2.2958,-2.3021,-2.3025,-2.2981,-2.2978,-2.2986,-2.3033,-2.3054,-2.306,-2.3159,-2.307,-2.3075,-2.3078,-2.308,-2.3338,-2.3341,0,0,0,0,0,0,-2.2874,-2.2884,-2.3004,-2.3007,-2.2914,-2.2958,-2.2964,-2.2996,-2.3024,-2.3026,-2.2988,-2.2983,-2.3046,-2.3054,-2.3062,-2.3179,-2.3076,-2.3081,-2.3084,-2.3334,-2.3339,-2.3342,0,0,0,0,0,0,-2.2871,-2.2885,-2.3001,-2.2945,-2.2959,-2.2964,-2.3,-2.2999,-2.3019,-2.303,-2.303,-2.3009,-2.3044,-2.3054,-2.313,-2.318,-2.3083,-2.3088,-2.333,-2.3336,-2.334,-2.3414,0,0,0,0,0,0,-2.2866,-2.2884,-2.2923,-2.2946,-2.2962,-2.3069,-2.3003,-2.3002,-2.3029,-2.3022,-2.3049,-2.305,-2.3042,-2.3122,-2.3135,-2.3186,-2.3093,-2.3326,-2.3333,-2.3339,-2.3407,-2.3421,-2.3433,0,0,0,0,0,-2.286,-2.2941,-2.2925,-2.2939,-2.301,-2.3072,-2.3081,-2.3071,-2.3033,-2.3071,-2.3078,-2.3049,-2.3173,-2.313,-2.3145,-2.3198,-2.3322,-2.3331,-2.3338,-2.3401,-2.3418,-2.3433,0,0,0,0,0,0,-2.2923,-2.2944,-2.2926,-2.3017,-2.3043,-2.3063,-2.3111,-2.309,-2.3127,-2.3119,-2.3104,-2.3111,-2.3191,-2.3202,-2.3154,-2.3294,-2.3241,-2.3253,-2.3284,-2.3301,-2.3313,-2.3308,-2.3097,0,0,0,0,0,-2.2947,-2.2997,-2.3012,-2.309,-2.3105,-2.3106,-2.3133,-2.3122,-2.3149,-2.316,-2.3172,-2.3198,-2.3243,-2.3272,-2.3314,-2.3409,-2.3413,-2.3452,-2.3465,-2.3476,-2.3486,-2.3535,-2.3552,-2.3369,-2.3369,-2.3368,0,0,-2.2998,-2.3015,-2.3047,-2.3103,-2.3123,-2.3173,-2.3116,-2.3172,-2.3209,-2.3168,-2.324,-2.325,-2.3278,-2.3364,-2.3402,-2.3375,-2.3537,-2.3486,-2.3495,-2.3498,-2.3545,-2.3562,-2.3577,-2.3374,-2.3373,-2.3372,0,0,-2.3116,-2.3135,-2.3201,-2.3222,-2.3252,-2.3252,-2.3268,-2.3291,-2.3296,-2.3369,-2.3339,-2.3382,-2.346,-2.3481,-2.3501,-2.3627,-2.3601,-2.3641,-2.3708,-2.3757,-2.3771,-2.3784,-2.3827,-2.3842,-2.365,-2.3651,-2.3651,0,-2.3175,-2.325,-2.3238,-2.3297,-2.3321,-2.3287,-2.3354,-2.3374,-2.3416,-2.3434,-2.3404,-2.3499,-2.3516,-2.3605,-2.3636,-2.3654,-2.3671,-2.3637,-2.377,-2.3783,-2.3794,-2.3835,-2.3851,-2.3655,-2.3655,-2.3654,-2.3654,0,-2.3321,-2.3373,-2.3424,-2.3465,-2.3496,-2.3558,-2.3555,-2.3587,-2.3574,-2.3577,-2.365,-2.3669,-2.3713,-2.3734,-2.3722,-2.3821,-2.3803,-2.3772,-2.3718,-2.3816,-2.3854,-2.387,-2.3661,-2.366,-2.3659,-2.3657,0,0,-2.3479,-2.3513,-2.3531,-2.3549,-2.3579,-2.3619,-2.368,-2.3723,-2.375,-2.3781,-2.383,-2.3896,-2.3867,-2.389,-2.388,-2.3923,-2.4019,-2.3886,-2.3886,-2.3909,-2.4127,-2.4149,-2.4168,-2.4002,-2.4005,-2.4008,-2.4124,0,-2.3597,-2.3702,-2.3693,-2.3792,-2.384,-2.3807,-2.386,-2.3883,-2.3888,-2.3928,-2.3932,-2.3979,-2.3938,-2.3952,-2.3993,-2.3998,-2.4062,-2.399,-2.4046,-2.4049,-2.4039,-2.4188,-2.4212,-2.4321,-2.4139,-2.4142,-2.4143,0,-2.3749,-2.3784,-2.3888,-2.391,-2.3929,-2.3977,-2.4015,-2.4054,-2.408,-2.408,-2.4106,-2.4089,-2.4148,-2.4094,-2.4174,-2.4126,-2.4148,-2.4154,-2.4158,-2.4162,-2.4101,-2.4194,-2.4355,-2.4371,-2.4167,-2.4165,-2.4163,0,-2.3852,-2.3926,-2.3997,-2.4013,-2.4041,-2.4074,-2.4087,-2.411,-2.4136,-2.417,-2.4186,-2.4226,-2.4248,-2.4279,-2.4272,-2.4233,-2.4354,-2.4299,-2.4354,-2.4355,-2.438,-2.4379,-2.4546,-2.4398,-2.4397,-2.4397,-2.4397,0,-2.3984,-2.4048,-2.4043,-2.4087,-2.4158,-2.4146,-2.4216,-2.4225,-2.4245,-2.4289,-2.4264,-2.4306,-2.4295,-2.4336,-2.4331,-2.4398,-2.4408,-2.4409,-2.4406,-2.441,-2.441,-2.4424,-2.4415,-2.4401,-2.44,-2.44,-2.4399,0,-2.4111,-2.4111,-2.4186,-2.4206,-2.4212,-2.4263,-2.428,-2.432,-2.4322,-2.4378,-2.4391,-2.4394,-2.4441,-2.4437,-2.449,-2.4487,-2.4569,-2.4558,-2.456,-2.4557,-2.4612,-2.4606,-2.4793,-2.4816,-2.4654,-2.4656,-2.4657,0,-2.4195,-2.4243,-2.4268,-2.4296,-2.4311,-2.4357,-2.4383,-2.4373,-2.4402,-2.4434,-2.4471,-2.4515,-2.455,-2.4627,-2.4633,-2.4673,-2.4662,-2.4725,-2.4668,-2.467,-2.4661,-2.4658,-2.4662,-2.4736,-2.4737,-2.4739,-2.474,0,-2.4342,-2.4339,-2.4379,-2.4419,-2.4451,-2.4482,-2.451,-2.4534,-2.4526,-2.456,-2.4607,-2.4635,-2.4688,-2.4732,-2.477,-2.4782,-2.476,-2.4758,-2.4773,-2.4776,-2.4775,-2.4775,-2.4589,-2.4754,-2.4752,-2.4751,-2.4751,-2.475,-2.4449,-2.449,-2.4514,-2.4559,-2.4578,-2.4605,-2.4644,-2.465,-2.469,-2.4733,-2.4725,-2.4778,-2.4801,-2.485,-2.4866,-2.4906,-2.4883,-2.4905,-2.491,-2.4915,-2.4921,-2.477,-2.4913,-2.4913,-2.4912,-2.4912,-2.4912,0,-2.4594,-2.4608,-2.4649,-2.4688,-2.4723,-2.47,-2.4729,-2.4759,-2.4807,-2.483,-2.4865,-2.4919,-2.4962,-2.4971,-2.5012,-2.5042,-2.5033,-2.5053,-2.505,-2.5052,-2.494,-2.4922,-2.506,-2.506,-2.506,-2.506,-2.506,-2.506,-2.4673,-2.4741,-2.4741,-2.4818,-2.4831,-2.4883,-2.4902,-2.4925,-2.4944,-2.5006,-2.5041,-2.5047,-2.5065,-2.5106,-2.5143,-2.5145,-2.516,-2.5184,-2.5182,-2.5076,-2.5061,-2.5046,-2.503,-2.5188,-2.5188,-2.5291,-2.5292,-2.5292]},{"header":{"parameterUnit":"m.s-1","parameterCategory":1,"la1":30.2991,"la2":30.254,"lo1":-89.0895,"lo2":-89.0444,"dy":0.0017,"dx":0.0017,"nx":28,"ny":28,"refTime":"2025-12-14T09:00:00:Z","depth":0,"parameterNumber":3,"parameterNumberName":"V-component_of_WINDS"},"data":[0,0,0,0,0,0,0,0,0,0,0,0,0,0,0,0,0,0,0,0,0,0,0,0,0,0,0,0,0,0,0,0,0,0,0,0,0,0,0,0,0,0,0,0,0,0,0,0,0,0,0,0,0,0,0,0,0,0,-1.3918,-1.3918,0,-1.3967,-1.3968,-1.3968,-1.4022,-1.4022,-1.4023,-1.4024,-1.4071,-1.4071,-1.4072,0,0,0,0,0,0,0,0,0,0,0,0,0,-1.3866,-1.3866,-1.3918,-1.3918,-1.3919,-1.3967,-1.3968,-1.3968,-1.4021,-1.4022,-1.4023,-1.4024,-1.4071,-1.4071,-1.4072,0,0,0,0,0,0,0,0,0,0,0,0,0,-1.3899,-1.3867,-1.3918,-1.3951,-1.3955,-1.3967,-1.3968,-1.3969,-1.4021,-1.4022,-1.4024,-1.4025,-1.407,-1.4071,-1.4072,-1.4054,0,0,-1.4074,-1.4075,0,0,0,0,0,0,0,0,-1.3897,-1.3901,-1.3946,-1.3949,-1.3953,-1.3989,-1.3967,-1.3997,-1.4021,-1.3996,-1.4024,-1.4025,-1.4043,-1.4046,-1.4052,-1.4056,-1.4058,-1.4074,-1.4075,-1.4075,-1.4076,0,0,0,0,0,0,0,-1.3895,-1.3899,-1.3937,-1.3946,-1.3951,-1.3963,-1.3969,-1.3973,-1.4012,-1.3998,-1.4002,-1.4007,-1.4045,-1.4051,-1.4054,-1.4059,-1.4074,-1.4075,-1.4076,-1.4076,-1.4048,-1.4047,0,0,0,0,0,0,-1.3888,-1.3897,-1.3936,-1.3939,-1.3927,-1.3963,-1.397,-1.3976,-1.4012,-1.4019,-1.4006,-1.401,-1.4049,-1.4053,-1.4056,-1.4035,-1.4075,-1.4076,-1.4076,-1.4049,-1.4047,-1.4046,0,0,0,0,0,0,-1.3886,-1.3891,-1.3934,-1.3919,-1.3925,-1.3962,-1.397,-1.3977,-1.3984,-1.4018,-1.4025,-1.4006,-1.4051,-1.4055,-1.4054,-1.4037,-1.4076,-1.4077,-1.405,-1.4048,-1.4047,-1.3994,0,0,0,0,0,0,-1.3885,-1.389,-1.3884,-1.3918,-1.3926,-1.3931,-1.3969,-1.3977,-1.3985,-1.399,-1.402,-1.4026,-1.4052,-1.4052,-1.4054,-1.4039,-1.4078,-1.4052,-1.405,-1.4047,-1.3997,-1.399,-1.3984,0,0,0,0,0,-1.3883,-1.3867,-1.3884,-1.3888,-1.392,-1.3931,-1.3935,-1.3966,-1.3984,-1.3977,-1.4,-1.4025,-1.4039,-1.4052,-1.4055,-1.4039,-1.4053,-1.405,-1.4048,-1.4,-1.3992,-1.3985,0,0,0,0,0,0,-1.3828,-1.3872,-1.3891,-1.3886,-1.3904,-1.394,-1.3933,-1.3956,-1.3969,-1.3972,-1.4009,-1.4016,-1.401,-1.4025,-1.4038,-1.4022,-1.405,-1.4047,-1.4012,-1.4005,-1.3999,-1.3994,-1.4078,0,0,0,0,0,-1.3816,-1.3823,-1.386,-1.3852,-1.386,-1.3895,-1.3901,-1.3923,-1.3943,-1.3951,-1.3973,-1.399,-1.3999,-1.4003,-1.4013,-1.4,-1.4006,-1.3991,-1.3985,-1.398,-1.3976,-1.3969,-1.3962,-1.4037,-1.4037,-1.4037,0,0,-1.379,-1.3815,-1.3816,-1.3842,-1.3858,-1.3863,-1.3901,-1.3904,-1.3907,-1.3951,-1.3951,-1.3968,-1.399,-1.3982,-1.398,-1.3995,-1.3957,-1.3976,-1.3972,-1.3971,-1.3965,-1.3958,-1.3951,-1.4035,-1.4036,-1.4036,0,0,-1.3745,-1.3765,-1.376,-1.3776,-1.3801,-1.3825,-1.3823,-1.3855,-1.3868,-1.3869,-1.3902,-1.3906,-1.392,-1.3933,-1.3942,-1.3902,-1.3924,-1.3904,-1.387,-1.3862,-1.3856,-1.3851,-1.3834,-1.3828,-1.3901,-1.3901,-1.3901,0,-1.3709,-1.3718,-1.3754,-1.3755,-1.3764,-1.3805,-1.3799,-1.3813,-1.3839,-1.3844,-1.3861,-1.3878,-1.3896,-1.3891,-1.3881,-1.3888,-1.3886,-1.3899,-1.3854,-1.385,-1.3845,-1.3829,-1.3823,-1.3898,-1.3899,-1.3899,-1.3899,0,-1.3671,-1.3677,-1.3669,-1.3694,-1.3703,-1.3701,-1.3735,-1.3739,-1.3761,-1.3782,-1.3781,-1.3805,-1.3819,-1.382,-1.3841,-1.3818,-1.3826,-1.3848,-1.3875,-1.3835,-1.382,-1.3814,-1.3894,-1.3895,-1.3896,-1.3897,0,0,-1.359,-1.3636,-1.3633,-1.3644,-1.3675,-1.368,-1.3679,-1.3694,-1.3695,-1.3713,-1.3711,-1.3722,-1.3743,-1.3753,-1.3776,-1.3769,-1.3733,-1.3792,-1.3793,-1.3778,-1.3706,-1.3686,-1.3679,-1.375,-1.3749,-1.3748,-1.3703,0,-1.3548,-1.3549,-1.3581,-1.3573,-1.3577,-1.3617,-1.3616,-1.3634,-1.3653,-1.3659,-1.3681,-1.3687,-1.3715,-1.3721,-1.3717,-1.3738,-1.3718,-1.3742,-1.3746,-1.3745,-1.3736,-1.3672,-1.3652,-1.3608,-1.3698,-1.3697,-1.3696,0,-1.3498,-1.3513,-1.3505,-1.3535,-1.3538,-1.3537,-1.3552,-1.3558,-1.3579,-1.3594,-1.3605,-1.3632,-1.3631,-1.366,-1.3658,-1.3673,-1.3677,-1.3688,-1.3687,-1.3686,-1.3716,-1.3666,-1.3595,-1.3587,-1.3688,-1.3689,-1.3689,0,-1.3436,-1.3455,-1.3452,-1.3461,-1.3497,-1.3495,-1.351,-1.3532,-1.3539,-1.3552,-1.3557,-1.357,-1.3576,-1.3585,-1.3614,-1.3633,-1.3608,-1.3639,-1.3618,-1.3617,-1.3608,-1.3608,-1.3533,-1.3616,-1.3616,-1.3616,-1.3616,0,-1.3383,-1.3376,-1.3424,-1.3422,-1.3414,-1.3452,-1.3443,-1.3462,-1.3481,-1.3482,-1.3518,-1.3518,-1.3558,-1.3562,-1.3585,-1.3578,-1.3582,-1.3592,-1.3597,-1.3587,-1.3585,-1.3587,-1.3589,-1.3614,-1.3615,-1.3615,-1.3615,0,-1.3312,-1.3344,-1.3343,-1.3378,-1.3387,-1.3379,-1.3409,-1.3407,-1.343,-1.3431,-1.3433,-1.3468,-1.3474,-1.3505,-1.3519,-1.3534,-1.3518,-1.3532,-1.3511,-1.3514,-1.3489,-1.349,-1.3411,-1.3402,-1.3493,-1.3492,-1.3491,0,-1.3274,-1.3269,-1.3304,-1.3308,-1.3321,-1.3327,-1.3334,-1.3371,-1.3377,-1.34,-1.3395,-1.3405,-1.3414,-1.3422,-1.3448,-1.3458,-1.347,-1.3442,-1.3471,-1.346,-1.3465,-1.3464,-1.3462,-1.3434,-1.3433,-1.3432,-1.3431,0,-1.3203,-1.3219,-1.3229,-1.3243,-1.3251,-1.3264,-1.3279,-1.328,-1.3321,-1.3325,-1.3333,-1.334,-1.3354,-1.3362,-1.3377,-1.3391,-1.3416,-1.3422,-1.3417,-1.3404,-1.3391,-1.3395,-1.349,-1.3423,-1.3424,-1.3424,-1.3425,-1.3425,-1.3145,-1.3142,-1.3166,-1.3174,-1.319,-1.3204,-1.3203,-1.3227,-1.3234,-1.3248,-1.327,-1.3274,-1.3295,-1.3317,-1.3329,-1.3332,-1.3347,-1.334,-1.3338,-1.3335,-1.3328,-1.3394,-1.3335,-1.3335,-1.3335,-1.3336,-1.3336,0,-1.3072,-1.309,-1.3098,-1.3119,-1.3125,-1.3152,-1.317,-1.3173,-1.3176,-1.3194,-1.3203,-1.3211,-1.3219,-1.3246,-1.3256,-1.3253,-1.3265,-1.3254,-1.3252,-1.3255,-1.3316,-1.3317,-1.3244,-1.3244,-1.3244,-1.3244,-1.3244,-1.3244,-1.3035,-1.3031,-1.305,-1.3053,-1.3071,-1.3076,-1.3083,-1.3095,-1.3109,-1.3117,-1.3124,-1.3142,-1.3163,-1.3175,-1.3183,-1.3191,-1.3191,-1.3176,-1.3187,-1.3242,-1.3251,-1.3259,-1.3261,-1.3177,-1.3176,-1.3125,-1.3125,-1.3124]}]]